Time,TemperatureF,DewpointF,PressureIn,WindDirection,WindDirectionDegrees,WindSpeedMPH,WindSpeedGustMPH,Humidity,HourlyPrecipIn,Conditions,Clouds,dailyrainin,SoftwareType,DateUTC
2013-09-22 00:02:00,-999.0,-99.9,29.89,North,360,1.0,-999.0,-999,-99.99,,,-99.99,,2013-09-22 04:02:00,
2013-09-22 00:23:00,54.0,46.0,29.89,North,360,1.0,-999.0,74,-99.99,,,-99.99,,2013-09-22 04:23:00,
2013-09-22 00:54:00,54.0,47.0,29.89,North,360,0.0,-999.0,76,-99.99,,,-99.99,,2013-09-22 04:54:00,
2013-09-22 01:23:00,53.0,46.0,29.90,North,360,0.0,-999.0,78,-99.99,,,-99.99,,2013-09-22 05:23:00,
2013-09-22 01:53:00,52.0,46.0,29.93,North,360,1.0,-999.0,79,-99.99,,,-99.99,,2013-09-22 05:53:00,
2013-09-22 02:22:00,52.0,46.0,29.93,North,360,0.0,-999.0,81,-99.99,,,-99.99,,2013-09-22 06:22:00,
2013-09-22 02:52:00,51.0,45.0,29.93,North,360,0.0,-999.0,81,-99.99,,,-99.99,,2013-09-22 06:52:00,
2013-09-22 03:22:00,51.0,46.0,29.93,North,360,0.0,-999.0,83,-99.99,,,-99.99,,2013-09-22 07:22:00,
2013-09-22 03:52:00,50.0,45.0,29.91,North,360,0.0,-999.0,84,-99.99,,,-99.99,,2013-09-22 07:52:00,
2013-09-22 04:22:00,50.0,45.0,29.91,North,360,0.0,-999.0,84,-99.99,,,-99.99,,2013-09-22 08:22:00,
2013-09-22 04:52:00,50.0,46.0,29.91,North,360,0.0,-999.0,85,-99.99,,,-99.99,,2013-09-22 08:52:00,
2013-09-22 05:22:00,49.0,45.0,29.92,North,360,1.0,-999.0,86,-99.99,,,-99.99,,2013-09-22 09:22:00,
2013-09-22 05:54:00,49.0,45.0,29.93,NNE,16,1.0,-999.0,87,-99.99,,,-99.99,,2013-09-22 09:54:00,
2013-09-22 06:12:00,49.0,45.0,29.93,NNE,16,1.0,-999.0,87,-99.99,,,-99.99,,2013-09-22 10:12:00,
2013-09-22 06:23:00,49.0,46.0,29.93,NNE,16,0.0,-999.0,88,-99.99,,,-99.99,,2013-09-22 10:23:00,
2013-09-22 06:53:00,48.0,45.0,29.94,NNE,16,0.0,-999.0,88,-99.99,,,-99.99,,2013-09-22 10:53:00,
2013-09-22 07:22:00,48.0,45.0,29.95,NNE,16,0.0,-999.0,88,-99.99,,,-99.99,,2013-09-22 11:22:00,
2013-09-22 07:52:00,48.0,45.0,29.96,NNE,16,0.0,-999.0,89,-99.99,,,-99.99,,2013-09-22 11:52:00,
2013-09-22 08:12:00,47.0,44.0,29.96,NNE,16,0.0,-999.0,89,-99.99,,,-99.99,,2013-09-22 12:12:00,
2013-09-22 08:22:00,48.0,45.0,29.96,NNE,16,0.0,-999.0,90,-99.99,,,-99.99,,2013-09-22 12:22:00,
2013-09-22 08:52:00,50.0,47.0,29.98,North,359,2.0,-999.0,89,-99.99,,,-99.99,,2013-09-22 12:52:00,
2013-09-22 09:12:00,51.0,47.0,29.98,North,11,0.0,-999.0,85,-99.99,,,-99.99,,2013-09-22 13:12:00,
2013-09-22 09:22:00,54.0,48.0,29.98,North,360,0.0,-999.0,80,-99.99,,,-99.99,,2013-09-22 13:22:00,
2013-09-22 09:52:00,56.0,48.0,30.00,NNE,13,3.0,-999.0,74,-99.99,,,-99.99,,2013-09-22 13:52:00,
2013-09-22 10:22:00,57.0,45.0,30.01,North,11,2.0,-999.0,63,-99.99,,,-99.99,,2013-09-22 14:22:00,
2013-09-22 10:52:00,59.0,44.0,30.01,North,360,4.0,-999.0,58,-99.99,,,-99.99,,2013-09-22 14:52:00,
2013-09-22 11:23:00,60.0,44.0,30.01,NNE,13,3.0,-999.0,55,-99.99,,,-99.99,,2013-09-22 15:23:00,
2013-09-22 11:55:00,60.0,43.0,30.01,North,360,6.0,-999.0,54,-99.99,,,-99.99,,2013-09-22 15:55:00,
2013-09-22 12:24:00,61.0,43.0,30.01,North,350,3.0,-999.0,51,-99.99,,,-99.99,,2013-09-22 16:24:00,
2013-09-22 12:54:00,62.0,44.0,30.01,NNE,21,3.0,-999.0,52,-99.99,,,-99.99,,2013-09-22 16:54:00,
2013-09-22 13:23:00,62.0,43.0,30.00,NNE,28,2.0,-999.0,50,-99.99,,,-99.99,,2013-09-22 17:23:00,
2013-09-22 13:53:00,63.0,43.0,30.01,NNE,21,2.0,-999.0,48,-99.99,,,-99.99,,2013-09-22 17:53:00,
2013-09-22 14:13:00,63.0,42.0,30.00,NNE,23,4.0,-999.0,46,-99.99,,,-99.99,,2013-09-22 18:13:00,
2013-09-22 14:22:00,63.0,41.0,30.00,North,360,4.0,-999.0,45,-99.99,,,-99.99,,2013-09-22 18:22:00,
2013-09-22 14:52:00,63.0,42.0,29.99,North,360,2.0,-999.0,46,-99.99,,,-99.99,,2013-09-22 18:52:00,
2013-09-22 15:22:00,64.0,42.0,29.98,North,359,3.0,-999.0,44,-99.99,,,-99.99,,2013-09-22 19:22:00,
2013-09-22 15:53:00,64.0,43.0,29.98,ENE,69,2.0,-999.0,46,-99.99,,,-99.99,,2013-09-22 19:53:00,
2013-09-22 16:22:00,64.0,42.0,29.98,North,1,2.0,-999.0,44,-99.99,,,-99.99,,2013-09-22 20:22:00,
2013-09-22 16:52:00,64.0,40.0,29.98,East,80,1.0,-999.0,42,-99.99,,,-99.99,,2013-09-22 20:52:00,
2013-09-22 17:23:00,65.0,43.0,29.97,East,88,3.0,-999.0,44,-99.99,,,-99.99,,2013-09-22 21:23:00,
2013-09-22 17:54:00,65.0,42.0,29.97,NE,35,2.0,-999.0,43,-99.99,,,-99.99,,2013-09-22 21:54:00,
2013-09-22 18:24:00,65.0,42.0,29.98,NNE,25,1.0,-999.0,43,-99.99,,,-99.99,,2013-09-22 22:24:00,
2013-09-22 18:54:00,63.0,41.0,29.98,NE,42,0.0,-999.0,45,-99.99,,,-99.99,,2013-09-22 22:54:00,
2013-09-22 19:22:00,62.0,42.0,29.99,East,93,0.0,-999.0,48,-99.99,,,-99.99,,2013-09-22 23:22:00,
2013-09-22 19:52:00,61.0,43.0,29.99,East,93,0.0,-999.0,52,-99.99,,,-99.99,,2013-09-22 23:52:00,
2013-09-22 20:12:00,61.0,44.0,30.00,East,93,0.0,-999.0,54,-99.99,,,-99.99,,2013-09-23 00:12:00,
2013-09-22 20:23:00,60.0,45.0,30.00,East,93,0.0,-999.0,57,-99.99,,,-99.99,,2013-09-23 00:23:00,
2013-09-22 20:53:00,58.0,45.0,30.00,East,93,0.0,-999.0,63,-99.99,,,-99.99,,2013-09-23 00:53:00,
2013-09-22 21:22:00,56.0,46.0,30.01,East,93,0.0,-999.0,68,-99.99,,,-99.99,,2013-09-23 01:22:00,
2013-09-22 21:52:00,55.0,46.0,30.01,East,93,0.0,-999.0,72,-99.99,,,-99.99,,2013-09-23 01:52:00,
2013-09-22 22:11:00,54.0,46.0,30.01,East,93,0.0,-999.0,73,-99.99,,,-99.99,,2013-09-23 02:11:00,
2013-09-22 22:22:00,53.0,45.0,30.01,East,93,0.0,-999.0,75,-99.99,,,-99.99,,2013-09-23 02:22:00,
2013-09-22 22:52:00,52.0,45.0,30.01,East,93,0.0,-999.0,76,-99.99,,,-99.99,,2013-09-23 02:52:00,
2013-09-22 23:23:00,52.0,45.0,30.02,East,93,0.0,-999.0,77,-99.99,,,-99.99,,2013-09-23 03:23:00,
2013-09-22 23:54:00,51.0,44.0,30.03,East,93,0.0,-999.0,78,-99.99,,,-99.99,,2013-09-23 03:54:00,